Location: Biberach+an+der+Riss
(48.0937°N, 9.7888°E)
Time: 04:19:51
(UTC+02:00)

ISS - Pass Details

Date: 26 September 2020
Orbit: 418 x 420 km, 51.6° (Epoch: 20 October)

Event Time Altitude Azimuth Distance (km) Brightness Sun altitude
Rises 20:13:49 0° 274° (W) 2,366 2.2 -11.5°
Reaches altitude 10° 20:15:59 10° 281° (WNW) 1,503 0.6 -11.9°
Maximum altitude 20:19:14 44° 356° (N) 592 -2.9 -12.4°
Enters shadow 20:21:34 17° 64° (ENE) 1,154 -2.0 -12.8°
